Regional Weather Roundup
Issued by NWS Sterling, VA

Home | Current Version | Previous Version | Graphics & Text | Print | Product List | Glossary On
Versions: 1 2 3 4 5 6 7 8 9 10 11 12 13 14 15 16 17 18 19 20 21 22 23 24 25 26 27
000
ASUS41 KLWX 240211
RWRLWX

REGIONAL WEATHER ROUNDUP
NATIONAL WEATHER SERVICE BALTIMORE MD/WASHINGTON DC
1000 PM EDT TUE MAY 23 2017

Note: "FAIR" indicates few or no clouds below 12,000 feet
with no significant weather and/or obstructions to visibility.
 TC=TEMPERATURE CELSIUS

 * =Non NWS site. Station does not report precipitation (e.g. rain,
    snow, etc.), thunder, or fog.

DCZ001-MDZ009-015-VAZ040>042-051-053>054-240300-
WASHINGTON METRO

CITY           SKY/WX    TMP DP  RH WIND       PRES   REMARKS
WASHINGTON NAT CLOUDY    60  56  86 NE6       29.78F
DULLES         CLOUDY    59  55  87 E8        29.79S
ANDREWS AFB    CLOUDY    57  54  87 E5        29.76F
FT BELVOIR     CLOUDY    59  55  88 CALM      29.77F
QUANTICO       LGT RAIN  61  59  93 NE9       29.77F
COLLEGE PARK*  CLOUDY    59  56  92 CALM      29.78F
LEESBURG*      DRIZZLE   61  61 100 NE5       29.80F
MANASSAS*      LGT RAIN  59  55  88 E9        29.78S
GAITHERSBURG*  LGT RAIN  59  58  96 CALM      29.80S FOG

$$

MDZ006>007-011-014-240300-
BALTIMORE METRO

CITY           SKY/WX    TMP DP  RH WIND       PRES   REMARKS
BWI AIRPORT    CLOUDY    61  60  97 E3        29.78F
MD SCIENCE CTR   N/A     64  61  90 MISG      29.79F
MARTIN STATE   DRIZZLE   63  63 100 CALM      29.80F
ANNAPOLIS      CLOUDY    63  58  83 CALM      29.78F
FORT MEADE*    CLOUDY    59  55  88 CALM      29.81F

$$

MDZ012-015-019>023-240300-
MARYLAND EASTERN SHORE

CITY           SKY/WX    TMP DP  RH WIND       PRES   REMARKS
OCEAN CITY     LGT RAIN  57  55  93 NE9       29.77F
SALISBURY      LGT RAIN  56  56 100 NE10      29.75F
BAY BRIDGE AP* CLOUDY    61  52  72 E7        29.78F
CAMBRIDGE*     CLOUDY    57  55  94 NE5       29.77F
EASTON*        CLOUDY    59  54  82 E5        29.82F

$$

MDZ017>025-240300-
SOUTHERN MARYLAND

CITY           SKY/WX    TMP DP  RH WIND       PRES   REMARKS
PATUXENT RIVER LGT RAIN  59  59 100 NE9       29.76F
ST INIGOES     LGT RAIN  60  59  96 N5        29.75F
LEONARDTOWN*   NOT AVBL

$$

MDZ003>005-240300-
NORTH CENTRAL MARYLAND

CITY           SKY/WX    TMP DP  RH WIND       PRES   REMARKS
FREDERICK*     LGT RAIN  61  61 100 CALM      29.83S
HAGERSTOWN APT CLOUDY    61  51  70 E5        29.80S
WESTMINSTER*   LGT RAIN  59  57  94 NE3       29.80F

$$

MDZ501>502-240300-
WESTERN MARYLAND

CITY           SKY/WX    TMP DP  RH WIND       PRES   REMARKS
OAKLAND*       CLOUDY    48  48 100 CALM      29.81S FOG
CUMBERLAND*    CLOUDY    59  59 100 CALM      29.84S

$$

VAZ025>031-240300-
SHENANDOAH VALLEY

CITY           SKY/WX    TMP DP  RH WIND       PRES   REMARKS
WINCHESTER*    RAIN      55  54  94 CALM      29.80S
FRONT ROYAL*   CLOUDY    57  57 100 N3        29.78F
LURAY*         LGT RAIN  57  57 100 N7        29.77F
NEW MARKET*    CLOUDY    58  56  94 N7        29.77F
STAUNTON*      DRIZZLE   57  56  97 N6        29.79S
WAYNESBORO*    CLOUDY    57  57 100 N7        29.76F

$$

WVZ021-048>050-054>055-240300-
EASTERN WEST VIRGINIA PANHANDLE

CITY           SKY/WX    TMP DP  RH WIND       PRES   REMARKS
MARTINSBURG    LGT RAIN  58  56  93 CALM      29.80R FOG
PETERSBURG*    RAIN      59  58  97 CALM      29.80S

$$

VAZ036>039-050-240300-
CENTRAL FOOTHILLS

CITY           SKY/WX    TMP DP  RH WIND       PRES   REMARKS
CHARLOTTESVILL LGT RAIN  61  59  93 N7        29.75F FOG
CULPEPER*      DRIZZLE   60  60  98 CALM      29.77F
ORANGE*        HVY RAIN  59  59 100 CALM      29.75F
GORDONSVILLE*  CLOUDY    60  60 100 NE5       29.74F FOG
WARRENTON*     RAIN      61  57  88 NE3       29.76F

$$

VAZ055>057-240300-
NORTH AND CENTRAL PIEDMONT

CITY           SKY/WX    TMP DP  RH WIND       PRES   REMARKS
FREDERICKSBRG* DRIZZLE   60  60 100 E3        29.74F
STAFFORD*      DRIZZLE   58  58 100 NE5       29.80F

$$

NCZ024-NYZ072-PAZ021-071-VAZ022-071-240300-
OTHER REGIONAL OBSERVATIONS

CITY           SKY/WX    TMP DP  RH WIND       PRES   REMARKS
NEW YORK CITY  CLOUDY    63  48  58 CALM      29.86R
PHILADELPHIA   CLOUDY    62  52  69 E6        29.83S
PITTSBURGH     CLOUDY    65  52  62 SE9       29.74S
ROANOKE        RAIN      58  58 100 NE7       29.76F FOG
RICHMOND       LGT RAIN  60  59  96 E14       29.68F
RALEIGH        CLOUDY    67  66  97 SE5       29.70R

$$

ANZ530>537-240300-
MARINE OBSERVATIONS

STATION/POSITION TIME  TEMP    WIND        PRES
                       AIR SEA DIR/SP/G
                 (UTC) (F)     (DEG/KT/KT) (MB)
THOMAS PT LIGHT  0200   62 65   70/ 10/ 11   N/A
BALT KEY BRIDGE  0148   63      90/  7/  8 1008.5F
COVE POINT       0148   59      80/ 12/ 14 1008.5F
LEWISETTA        0148   61 68   70/ 12/ 16 1007.2F
SOLOMONS ISLAND  0148   59 67   30/  5/  8   N/A
PINEY POINT      0142           60/  7/  9   N/A

$$





USA.gov is the U.S. government's official web portal to all federal, state and local government web resources and services.